When you browse on this site, cookies collect data to enhance your experience and personalize the content and advertising you see.
Visit our Privacy Policy to learn more. By continuing to use the site, you agree to this use of cookies and data.
  • In Deutschland
  • Länderverzeichnis
  • Für 7 Tage
  • Wassertemperatur
  • Satellitenkarten
  • Wetterkarte
  • Widgets
  • user-avatar
    Anmelden

    Stündliche Wetter Enkamp

    Heute, 17 Juni, Montag

    Zeit Temperatur Niederschläge Wind Luftdruck Luftfeuchtigkeit
    00:00 +10°C° 0 mm 1 m/S 625 mmHg 79%
    01:00 +10°C° 0 mm 1 m/S 625 mmHg 77%
    02:00 +10°C° 0 mm 1 m/S 624 mmHg 76%
    03:00 +10°C° 0 mm 1 m/S 624 mmHg 75%
    04:00 +11°C° 0 mm 1 m/S 625 mmHg 73%
    05:00 +12°C° 0 mm 1 m/S 625 mmHg 71%
    06:00 +13°C° 0 mm 1 m/S 626 mmHg 69%
    07:00 +15°C° 0 mm 1 m/S 627 mmHg 60%
    08:00 +18°C° 0 mm 1 m/S 627 mmHg 52%
    09:00 +21°C° 0 mm 1 m/S 628 mmHg 43%
    10:00 +21°C° 0 mm 1 m/S 628 mmHg 43%
    11:00 +21°C° 0 mm 1 m/S 628 mmHg 42%
    12:00 +20°C° 0 mm 2 m/S 628 mmHg 42%
    13:00 +20°C° 0.3 mm 2 m/S 627 mmHg 43%
    14:00 +20°C° 0.3 mm 2 m/S 627 mmHg 45%
    15:00 +21°C° 0.3 mm 1 m/S 627 mmHg 47%
    16:00 +20°C° 0.2 mm 1 m/S 626 mmHg 52%
    17:00 +20°C° 0.2 mm 1 m/S 626 mmHg 57%
    18:00 +19°C° 0.2 mm 1 m/S 626 mmHg 62%
    19:00 +16°C° 0 mm 1 m/S 625 mmHg 68%
    20:00 +14°C° 0 mm 1 m/S 624 mmHg 74%
    21:00 +11°C° 0 mm 1 m/S 624 mmHg 79%
    22:00 +11°C° 0 mm 1 m/S 624 mmHg 78%
    23:00 +11°C° 0 mm 1 m/S 624 mmHg 77%

    Morgen, 18 Juni, Dienstag

    Zeit Temperatur Niederschläge Wind Luftdruck Luftfeuchtigkeit
    00:00 +11°C° 0 mm 1 m/S 624 mmHg 75%
    01:00 +11°C° 0 mm 1 m/S 623 mmHg 73%
    02:00 +11°C° 0 mm 1 m/S 623 mmHg 71%
    03:00 +11°C° 0 mm 1 m/S 623 mmHg 69%
    04:00 +12°C° 0 mm 1 m/S 623 mmHg 66%
    05:00 +13°C° 0 mm 1 m/S 624 mmHg 63%
    06:00 +14°C° 0 mm 1 m/S 624 mmHg 61%
    07:00 +16°C° 0 mm 2 m/S 625 mmHg 53%
    08:00 +18°C° 0 mm 2 m/S 625 mmHg 45%
    09:00 +20°C° 0 mm 2 m/S 626 mmHg 38%
    10:00 +21°C° 0 mm 3 m/S 626 mmHg 36%
    11:00 +22°C° 0 mm 3 m/S 626 mmHg 34%
    12:00 +23°C° 0 mm 4 m/S 626 mmHg 32%
    13:00 +23°C° 0 mm 4 m/S 626 mmHg 32%
    14:00 +23°C° 0 mm 4 m/S 626 mmHg 33%
    15:00 +22°C° 0 mm 4 m/S 626 mmHg 33%
    16:00 +21°C° 0 mm 3 m/S 625 mmHg 39%
    17:00 +20°C° 0 mm 3 m/S 625 mmHg 44%
    18:00 +19°C° 0 mm 2 m/S 624 mmHg 50%
    19:00 +17°C° 0 mm 2 m/S 623 mmHg 56%
    20:00 +14°C° 0 mm 1 m/S 623 mmHg 62%
    21:00 +12°C° 0 mm 1 m/S 622 mmHg 68%
    22:00 +12°C° 0 mm 1 m/S 622 mmHg 67%
    23:00 +12°C° 0 mm 1 m/S 622 mmHg 67%

    übermorgen, 19 Juni, Mittwoch

    Zeit Temperatur Niederschläge Wind Luftdruck Luftfeuchtigkeit
    00:00 +11°C° 0 mm 1 m/S 622 mmHg 66%
    01:00 +11°C° 0 mm 1 m/S 622 mmHg 64%
    02:00 +11°C° 0 mm 1 m/S 622 mmHg 63%
    03:00 +11°C° 0 mm 1 m/S 622 mmHg 61%
    04:00 +12°C° 0 mm 1 m/S 622 mmHg 60%
    05:00 +13°C° 0 mm 1 m/S 623 mmHg 58%
    06:00 +14°C° 0 mm 1 m/S 624 mmHg 56%
    07:00 +16°C° 0 mm 1 m/S 624 mmHg 49%
    08:00 +18°C° 0 mm 2 m/S 625 mmHg 43%
    09:00 +20°C° 0 mm 2 m/S 626 mmHg 36%
    10:00 +20°C° 0 mm 3 m/S 626 mmHg 35%
    11:00 +21°C° 0 mm 3 m/S 626 mmHg 34%
    12:00 +22°C° 0 mm 3 m/S 626 mmHg 33%
    13:00 +22°C° 0 mm 3 m/S 626 mmHg 34%
    14:00 +22°C° 0 mm 3 m/S 626 mmHg 34%
    15:00 +22°C° 0 mm 3 m/S 625 mmHg 35%
    16:00 +21°C° 0 mm 3 m/S 625 mmHg 42%
    17:00 +19°C° 0 mm 2 m/S 625 mmHg 49%
    18:00 +18°C° 0 mm 2 m/S 624 mmHg 56%
    19:00 +16°C° 0 mm 1 m/S 624 mmHg 62%
    20:00 +14°C° 0 mm 1 m/S 623 mmHg 68%
    21:00 +11°C° 0 mm 0 m/S 623 mmHg 74%
    22:00 +11°C° 0 mm 0 m/S 623 mmHg 73%
    23:00 +12°C° 0 mm 1 m/S 623 mmHg 72%

    20 Juni, Donnerstag

    Zeit Temperatur Niederschläge Wind Luftdruck Luftfeuchtigkeit
    00:00 +12°C° 0 mm 1 m/S 622 mmHg 71%
    01:00 +11°C° 0 mm 1 m/S 622 mmHg 72%
    02:00 +11°C° 0 mm 1 m/S 622 mmHg 72%
    03:00 +11°C° 0 mm 1 m/S 622 mmHg 72%
    04:00 +12°C° 0 mm 1 m/S 623 mmHg 71%
    05:00 +12°C° 0 mm 0 m/S 623 mmHg 71%
    06:00 +13°C° 0 mm 0 m/S 624 mmHg 70%
    07:00 +16°C° 0 mm 1 m/S 625 mmHg 62%
    08:00 +18°C° 0 mm 1 m/S 625 mmHg 55%
    09:00 +19°C° 0 mm 2 m/S 626 mmHg 47%
    10:00 +20°C° 0.1 mm 3 m/S 626 mmHg 45%
    11:00 +20°C° 0.1 mm 3 m/S 626 mmHg 44%
    12:00 +21°C° 0.1 mm 4 m/S 626 mmHg 42%
    13:00 +20°C° 0.1 mm 4 m/S 626 mmHg 47%
    14:00 +20°C° 0.1 mm 3 m/S 625 mmHg 52%
    15:00 +19°C° 0.1 mm 3 m/S 625 mmHg 57%
    16:00 +18°C° 0.6 mm 2 m/S 625 mmHg 65%
    17:00 +17°C° 0.6 mm 2 m/S 624 mmHg 73%
    18:00 +16°C° 0.6 mm 1 m/S 624 mmHg 81%
    19:00 +15°C° 1.5 mm 1 m/S 624 mmHg 84%
    20:00 +14°C° 1.5 mm 1 m/S 624 mmHg 88%
    21:00 +13°C° 1.5 mm 1 m/S 624 mmHg 92%
    22:00 +13°C° 0.9 mm 1 m/S 624 mmHg 93%
    23:00 +12°C° 0.9 mm 1 m/S 624 mmHg 94%

    21 Juni, Freitag

    Zeit Temperatur Niederschläge Wind Luftdruck Luftfeuchtigkeit
    00:00 +12°C° 0.9 mm 2 m/S 624 mmHg 95%
    01:00 +11°C° 0.2 mm 1 m/S 623 mmHg 95%
    02:00 +11°C° 0.2 mm 1 m/S 623 mmHg 95%
    03:00 +10°C° 0.2 mm 1 m/S 623 mmHg 96%
    04:00 +11°C° 0.1 mm 1 m/S 623 mmHg 94%
    05:00 +10°C° 0.1 mm 0 m/S 624 mmHg 93%
    06:00 +11°C° 0.1 mm 0 m/S 624 mmHg 91%
    07:00 +13°C° 0.4 mm 1 m/S 625 mmHg 86%
    08:00 +14°C° 0.4 mm 1 m/S 625 mmHg 81%
    09:00 +16°C° 0.4 mm 1 m/S 626 mmHg 76%
    10:00 +16°C° 0.9 mm 2 m/S 626 mmHg 77%
    11:00 +16°C° 0.9 mm 2 m/S 626 mmHg 78%
    12:00 +17°C° 0.9 mm 2 m/S 626 mmHg 78%
    13:00 +16°C° 1.3 mm 2 m/S 625 mmHg 79%
    14:00 +16°C° 1.3 mm 2 m/S 625 mmHg 80%
    15:00 +16°C° 1.3 mm 1 m/S 625 mmHg 82%
    16:00 +16°C° 0.7 mm 1 m/S 625 mmHg 83%
    17:00 +15°C° 0.7 mm 1 m/S 624 mmHg 84%
    18:00 +15°C° 0.7 mm 1 m/S 624 mmHg 86%
    19:00 +13°C° 0.1 mm 0 m/S 624 mmHg 88%
    20:00 +11°C° 0.1 mm 0 m/S 624 mmHg 90%
    21:00 +10°C° 0.1 mm 0 m/S 624 mmHg 92%
    22:00 +10°C° 0 mm 0 m/S 624 mmHg 92%
    23:00 +11°C° 0 mm 1 m/S 623 mmHg 91%

    22 Juni, Samstag

    Zeit Temperatur Niederschläge Wind Luftdruck Luftfeuchtigkeit
    00:00 +10°C° 0 mm 1 m/S 623 mmHg 90%
    01:00 +10°C° 0 mm 1 m/S 623 mmHg 91%
    02:00 +10°C° 0 mm 1 m/S 623 mmHg 91%
    03:00 +10°C° 0 mm 1 m/S 623 mmHg 91%
    04:00 +11°C° 0 mm 1 m/S 623 mmHg 90%
    05:00 +12°C° 0 mm 1 m/S 623 mmHg 89%
    06:00 +13°C° 0 mm 1 m/S 624 mmHg 87%
    07:00 +15°C° 0 mm 1 m/S 624 mmHg 79%
    08:00 +17°C° 0 mm 2 m/S 625 mmHg 70%
    09:00 +19°C° 0 mm 2 m/S 626 mmHg 61%
    10:00 +19°C° 0.1 mm 2 m/S 626 mmHg 57%
    11:00 +20°C° 0.1 mm 2 m/S 626 mmHg 54%
    12:00 +21°C° 0.1 mm 3 m/S 627 mmHg 50%
    13:00 +21°C° 0.2 mm 3 m/S 626 mmHg 51%
    14:00 +21°C° 0.2 mm 3 m/S 626 mmHg 52%
    15:00 +21°C° 0.2 mm 3 m/S 626 mmHg 53%
    16:00 +20°C° 0 mm 2 m/S 625 mmHg 58%
    17:00 +20°C° 0 mm 1 m/S 625 mmHg 63%
    18:00 +19°C° 0 mm 1 m/S 625 mmHg 68%
    19:00 +18°C° 0 mm 1 m/S 625 mmHg 70%
    20:00 +16°C° 0 mm 1 m/S 625 mmHg 72%
    21:00 +15°C° 0 mm 1 m/S 624 mmHg 74%
    22:00 +14°C° 0 mm 1 m/S 624 mmHg 75%
    23:00 +14°C° 0 mm 1 m/S 624 mmHg 75%
    Mehr zeigen